Location: Le Petit-Vavre
(46.5081°N, 1.5239°E)
Time: 14:28:21
(UTC+00:00)

USA 308 - Pass Details

Date: 03 March 2021
Orbit: 568 x 576 km, 54.0° (Epoch: 13 April)

Event Time Altitude Azimuth Distance (km) Brightness Sun altitude
Rises 20:06:17 0° 295° (WNW) 2,777 7.8 -25.2°
Reaches altitude 10° 20:08:44 10° 306° (NW) 1,877 6.5 -25.6°
Enters shadow 20:12:07 32° 356° (N) 1,001 4.3 -26.1°
